Location: Newark
(34.0635°N, 86.7609°W)
Time: 21:07:30
(UTC+00:00)

LightSail 2 - Visible Passes

Search period start: 07 December 2019 00:00
Search period end: 17 December 2019 00:00
Orbit: 696 x 730 km, 24.0° (Epoch: 06 December)

Date Brightness Start Highest point End Pass type
(mag) Time Alt. Az. Time Alt. Az. Time Alt. Az.
07 Dec 6.9 00:47:22 10° WSW 00:51:16 22° S 00:52:14 21° S visible
07 Dec 7.0 23:49:13 10° WSW 23:53:21 24° S 23:57:27 10° SE visible
08 Dec 7.8 01:35:38 10° SW 01:36:59 13° SW 01:36:59 13° SW visible
09 Dec 7.4 00:37:01 10° SW 00:40:21 17° SSW 00:42:49 13° SSE visible
09 Dec 7.3 23:38:39 10° WSW 23:42:26 20° SSW 23:46:11 10° SE visible
11 Dec 7.7 00:27:18 10° SW 00:29:21 12° SSW 00:31:23 10° S visible
11 Dec 7.7 23:28:24 10° SW 23:31:26 16° SSW 23:34:28 10° SSE visible
13 Dec 8.1 23:19:15 10° SSW 23:20:23 11° SSW 23:21:30 10° S visible
